Harrisburg, PA

12:46 AM EDT on April 30, 2017 (GMT -0400)
Capital City

Weather History for KCXY - February, 2013

Change the Weather History Date:

Thursday, February 28, 2013

  Actual Average Record
Temperature  
Mean Temperature 37 °F -  
Max Temperature 44 °F 43 °F 68 °F (1976)
Min Temperature 30 °F 27 °F -1 °F (1934)
Degree Days  
Heating Degree Days 28    
Moisture  
Dew Point 31 °F    
Average Humidity 73    
Maximum Humidity 100    
Minimum Humidity 56    
Precipitation  
Precipitation 0.01 in - - ()
Sea Level Pressure  
Sea Level Pressure 29.65 in    
Wind  
Wind Speed 7 mph (West)    
Max Wind Speed 14 mph    
Max Gust Speed 22 mph    
Visibility 10 miles    
Events Rain    
Averages and records for this station are not official NWS values.
T = Trace of Precipitation, MM = Missing Value Source: NWS Daily Summary

Daily Weather History Graph

Daily Weather History Graph

Search for Another Location

Airport or City:

Trip Planner

Search our weather history database for the weather conditions in past years. The results will help you decide how hot, cold, wet, or windy it might be!

Date:

Astronomy

Feb. 28, 2013 Rise Set
Actual Time 6:42 AM EST 5:58 PM EST
Civil Twilight 6:14 AM EST 6:25 PM EST
Nautical Twilight 5:43 AM EST 6:57 PM EST
Astronomical Twilight 5:11 AM EST 7:28 PM EST
Moon 9:23 PM EST (2/28) 7:50 AM EST (2/28)
Length of Visible Light 12h 10m
Length of Day
11h 16m
Waning Gibbous, 91% of the Moon is Illuminated
Feb 28
Waning Gibbous
Mar 4
Last Quarter
Mar 11
New
Mar 19
First Quarter
Mar 27
Full

Hourly Weather History & Observations

Time (EST) Temp. Windchill Dew Point Humidity Pressure Visibility Wind Dir Wind Speed Gust Speed Precip Events Conditions
1:56 AM 41.0 °F 38.0 °F 34.0 °F 76% 29.64 in 10.0 mi West 4.6 mph - 0.00 in Rain Light Rain
2:56 AM 41.0 °F 38.0 °F 34.0 °F 76% 29.64 in 10.0 mi West 4.6 mph - 0.00 in Rain Light Rain
3:49 AM 39.2 °F 33.6 °F 35.6 °F 87% 29.63 in 10.0 mi WNW 8.1 mph - 0.01 in Rain Light Rain
3:56 AM 39.0 °F 31.0 °F 35.1 °F 86% 29.65 in 10.0 mi WNW 13.8 mph 17.3 mph 0.01 in Rain Light Rain
4:45 AM 39.2 °F 35.0 °F 33.8 °F 81% 29.63 in 10.0 mi NNW 5.8 mph - 0.00 in   Overcast
4:56 AM 37.9 °F 34.4 °F 34.0 °F 86% 29.64 in 10.0 mi West 4.6 mph - 0.00 in   Overcast
5:29 AM 37.4 °F 34.9 °F 33.8 °F 87% 29.64 in 10.0 mi West 3.5 mph - N/A   Overcast
5:56 AM 37.0 °F - 34.0 °F 89% 29.65 in 10.0 mi Calm Calm - N/A   Mostly Cloudy
6:56 AM 30.9 °F 26.2 °F 30.9 °F 100% 29.66 in 8.0 mi SW 4.6 mph - N/A   Partly Cloudy
7:56 AM 37.9 °F 32.7 °F 33.1 °F 83% 29.66 in 10.0 mi West 6.9 mph - N/A   Mostly Cloudy
8:56 AM 41.0 °F 34.7 °F 30.0 °F 65% 29.65 in 10.0 mi WSW 10.4 mph - N/A   Clear
9:56 AM 44.1 °F 38.1 °F 30.0 °F 58% 29.65 in 10.0 mi West 11.5 mph - N/A   Scattered Clouds
10:56 AM 43.0 °F 36.8 °F 28.0 °F 56% 29.65 in 10.0 mi WNW 11.5 mph - N/A   Overcast
11:56 AM 42.1 °F 35.2 °F 28.9 °F 60% 29.65 in 10.0 mi West 12.7 mph - N/A   Overcast
12:56 PM 42.1 °F 35.7 °F 28.0 °F 58% 29.64 in 10.0 mi West 11.5 mph 21.9 mph N/A   Overcast
1:56 PM 39.0 °F 31.4 °F 30.9 °F 73% 29.63 in 10.0 mi WSW 12.7 mph - 0.00 in Rain Light Rain
2:56 PM 42.1 °F 35.2 °F 28.9 °F 60% 29.62 in 10.0 mi WSW 12.7 mph - 0.00 in   Overcast
3:56 PM 41.0 °F 34.3 °F 28.0 °F 60% 29.62 in 10.0 mi West 11.5 mph - 0.00 in   Overcast
4:56 PM 41.0 °F 35.8 °F 28.0 °F 60% 29.63 in 10.0 mi WNW 8.1 mph - 0.00 in Rain Light Rain
5:56 PM 41.0 °F 33.9 °F 27.0 °F 57% 29.66 in 10.0 mi WNW 12.7 mph - 0.00 in   Overcast
6:56 PM 39.0 °F 34.0 °F 28.0 °F 65% 29.68 in 10.0 mi West 6.9 mph - N/A   Overcast
7:56 PM 37.0 °F 33.3 °F 28.9 °F 73% 29.69 in 10.0 mi West 4.6 mph - N/A   Mostly Cloudy
8:56 PM 37.0 °F 33.3 °F 28.9 °F 73% 29.71 in 10.0 mi West 4.6 mph - N/A   Overcast
9:56 PM 37.0 °F 34.5 °F 28.9 °F 73% 29.71 in 10.0 mi West 3.5 mph - N/A   Overcast
11:56 PM 37.0 °F 31.6 °F 30.0 °F 76% 29.70 in 10.0 mi West 6.9 mph - N/A   Overcast